Sparta, IL

7:46 AM CST on November 15, 2019 (GMT -0600)
Sparta Community-Hunter

Weather History for KSAR - September, 2019

Change the Weather History Date:

Sunday, September 29, 2019

  Actual Average (WUND) Record (WUND)
Temperature  
Mean Temperature 80 °F -  
Max Temperature 90 °F - - (-1)
Min Temperature 71 °F - - (-1)
Cooling Degree Days 16    
Growing Degree Days 30 (Base 50)    
Moisture  
Dew Point 69 °F    
Average Humidity 72    
Maximum Humidity 92    
Minimum Humidity 48    
Precipitation  
Precipitation 0.00 in - - ()
Sea Level Pressure  
Sea Level Pressure 30.09 in    
Wind  
Wind Speed 6 mph (South)    
Max Wind Speed 15 mph    
Max Gust Speed 24 mph    
Visibility 8 miles    
Events      
Averages and records for this station are not official NWS values.
T = Trace of Precipitation, MM = Missing Value Source: NWS Daily Summary

Daily Weather History Graph

Daily Weather History Graph

Search for Another Location

Airport or City:

Astronomy

Sep. 29, 2019 Rise Set
Actual Time 6:52 AM CDT 6:45 PM CDT
Civil Twilight 6:26 AM CDT 7:11 PM CDT
Nautical Twilight 5:55 AM CDT 7:41 PM CDT
Astronomical Twilight 5:24 AM CDT 8:12 PM CDT
Moon 7:43 AM CDT (9/29) 7:46 PM CDT (9/29)
Length of Visible Light 12h 45m
Length of Day
11h 52m
New Moon, 1% of the Moon is Illuminated
Sep 29
New Moon
Oct 5
First Quarter
Oct 13
Full
Oct 21
Last Quarter
Oct 27
New

Hourly Weather History & Observations

Time (CDT) Temp. Heat Index Dew Point Humidity Pressure Visibility Wind Dir Wind Speed Gust Speed Precip Events Conditions
12:15 AM 73.4 °F - 70.7 °F 91% 30.08 in 1.0 mi SE 4.6 mph - N/A   Overcast
12:35 AM 73.4 °F - 70.7 °F 91% 30.08 in 0.8 mi SE 4.6 mph - N/A   Overcast
12:55 AM 73.4 °F - 70.7 °F 91% 30.07 in 1.0 mi SE 5.8 mph - N/A   Overcast
1:15 AM 73.4 °F - 70.7 °F 91% 30.07 in 1.0 mi SE 5.8 mph - N/A   Overcast
1:35 AM 73.4 °F - 70.5 °F 91% 30.08 in 0.8 mi SE 5.8 mph - N/A   Overcast
1:55 AM 73.4 °F - 70.2 °F 90% 30.07 in 0.8 mi SE 5.8 mph - N/A   Overcast
2:15 AM 73.4 °F - 70.5 °F 91% 30.07 in 0.8 mi SE 4.6 mph - N/A   Overcast
2:35 AM 73.4 °F - 70.3 °F 90% 30.07 in 0.8 mi SE 4.6 mph - N/A   Overcast
2:55 AM 73.4 °F - 70.2 °F 90% 30.06 in 0.8 mi SE 4.6 mph - N/A   Overcast
3:15 AM 72.9 °F - 70.2 °F 91% 30.07 in 1.8 mi SE 3.5 mph - N/A   Overcast
3:35 AM 72.9 °F - 70.0 °F 91% 30.07 in 2.5 mi SE 3.5 mph - N/A   Overcast
3:55 AM 72.7 °F - 69.8 °F 91% 30.07 in 1.2 mi SSE 4.6 mph - N/A   Overcast
4:15 AM 72.3 °F - 69.8 °F 92% 30.07 in 1.8 mi SSE 3.5 mph - N/A   Scattered Clouds
4:35 AM 72.0 °F - 69.4 °F 92% 30.07 in 1.8 mi SSE 4.6 mph - N/A   Mist
4:55 AM 71.8 °F - 69.1 °F 91% 30.07 in 1.5 mi SSE 5.8 mph - N/A   Mostly Cloudy
5:15 AM 73.4 °F - 68.5 °F 85% 30.09 in 4.0 mi South 4.6 mph - N/A   Mostly Cloudy
5:35 AM 74.1 °F - 68.4 °F 82% 30.09 in 10.0 mi South 5.8 mph - N/A   Mostly Cloudy
5:55 AM 73.4 °F - 68.4 °F 84% 30.09 in 10.0 mi South 5.8 mph - N/A   Scattered Clouds
6:15 AM 72.9 °F - 68.4 °F 86% 30.10 in 7.0 mi South 5.8 mph - N/A   Clear
6:35 AM 73.4 °F - 68.2 °F 84% 30.11 in 10.0 mi South 6.9 mph - N/A   Clear
6:55 AM 72.9 °F - 68.4 °F 86% 30.11 in 10.0 mi South 5.8 mph - N/A   Scattered Clouds
7:15 AM 72.5 °F - 68.2 °F 86% 30.11 in 10.0 mi SSE 4.6 mph - N/A   Scattered Clouds
7:35 AM 72.5 °F - 68.0 °F 86% 30.12 in 10.0 mi South 4.6 mph - N/A   Scattered Clouds
7:55 AM 73.2 °F - 68.4 °F 85% 30.12 in 10.0 mi South 5.8 mph - N/A   Mostly Cloudy
8:15 AM 73.8 °F - 68.2 °F 83% 30.12 in 10.0 mi South 8.1 mph - N/A   Mostly Cloudy
8:35 AM 75.0 °F - 68.7 °F 81% 30.12 in 10.0 mi South 8.1 mph - N/A   Scattered Clouds
8:55 AM 76.8 °F - 69.1 °F 77% 30.12 in 10.0 mi South 9.2 mph - N/A   Mostly Cloudy
9:15 AM 78.1 °F - 69.1 °F 74% 30.13 in 10.0 mi SSW 10.4 mph 18.4 mph N/A   Mostly Cloudy
9:35 AM 77.5 °F - 68.9 °F 75% 30.14 in 10.0 mi SSW 6.9 mph 10.4 mph N/A   Mostly Cloudy
9:55 AM 78.8 °F - 69.6 °F 73% 30.14 in 10.0 mi SSW 8.1 mph - N/A   Overcast
10:15 AM 78.8 °F - 69.6 °F 73% 30.14 in 10.0 mi SW 6.9 mph - N/A   Mostly Cloudy
10:35 AM 79.2 °F - 70.0 °F 73% 30.14 in 10.0 mi SSW 6.9 mph - N/A   Mostly Cloudy
10:55 AM 80.2 °F 83.7 °F 70.7 °F 73% 30.14 in 10.0 mi South 5.8 mph - N/A   Overcast
11:15 AM 81.7 °F 85.6 °F 70.5 °F 69% 30.14 in 10.0 mi SSW 6.9 mph - N/A   Overcast
11:35 AM 83.7 °F 88.6 °F 71.1 °F 66% 30.13 in 10.0 mi SSW 5.8 mph - N/A   Mostly Cloudy
11:55 AM 86.7 °F 93.3 °F 72.1 °F 62% 30.13 in 10.0 mi SSW 8.1 mph - N/A   Scattered Clouds
12:15 PM 86.9 °F 92.5 °F 71.2 °F 59% 30.12 in 10.0 mi SSW 8.1 mph - N/A   Scattered Clouds
12:35 PM 89.1 °F 94.1 °F 70.2 °F 53% 30.12 in 10.0 mi SSW 15.0 mph 24.2 mph N/A   Mostly Cloudy
12:55 PM 87.8 °F 92.2 °F 69.1 °F 54% 30.11 in 10.0 mi SW 13.8 mph 20.7 mph N/A   Scattered Clouds
1:15 PM 88.9 °F 93.8 °F 69.8 °F 53% 30.10 in 10.0 mi SW 10.4 mph 23.0 mph N/A   Scattered Clouds
1:35 PM 89.2 °F 94.1 °F 69.6 °F 52% 30.09 in 10.0 mi SW 13.8 mph 24.2 mph N/A   Scattered Clouds
1:55 PM 90.0 °F 94.5 °F 69.1 °F 50% 30.09 in 10.0 mi SW 11.5 mph 18.4 mph N/A   Scattered Clouds
2:15 PM 90.9 °F 95.3 °F 68.5 °F 48% 30.08 in 10.0 mi SW 13.8 mph 19.6 mph N/A   Scattered Clouds
2:35 PM 90.0 °F 94.1 °F 68.4 °F 49% 30.08 in 10.0 mi SSW 12.7 mph 18.4 mph N/A   Mostly Cloudy
2:55 PM 90.7 °F 95.4 °F 69.1 °F 49% 30.07 in 10.0 mi South 11.5 mph 18.4 mph N/A   Mostly Cloudy
3:15 PM 90.7 °F 95.0 °F 68.7 °F 48% 30.07 in 10.0 mi SW 9.2 mph - N/A   Scattered Clouds
3:35 PM 88.5 °F 92.3 °F 68.5 °F 51% 30.07 in 10.0 mi SW 8.1 mph - N/A   Scattered Clouds
3:55 PM 90.0 °F 94.5 °F 69.1 °F 50% 30.06 in 10.0 mi SW 13.8 mph - N/A   Scattered Clouds
4:15 PM 90.0 °F 94.1 °F 68.4 °F 49% 30.07 in 10.0 mi SW 10.4 mph 19.6 mph N/A   Clear
4:35 PM 88.9 °F 92.6 °F 68.0 °F 50% 30.07 in 10.0 mi SW 11.5 mph - N/A   Clear
4:55 PM 89.4 °F 93.5 °F 68.4 °F 50% 30.07 in 10.0 mi SW 8.1 mph 16.1 mph N/A   Clear
5:15 PM 89.2 °F 92.4 °F 67.5 °F 48% 30.07 in 10.0 mi SSW 10.4 mph - N/A   Clear
5:35 PM 88.3 °F 92.0 °F 68.0 °F 51% 30.07 in 10.0 mi SSW 8.1 mph - N/A   Scattered Clouds
5:55 PM 88.0 °F 90.7 °F 66.9 °F 49% 30.08 in 10.0 mi SSW 9.2 mph - N/A   Scattered Clouds
6:15 PM 86.0 °F 88.5 °F 66.7 °F 52% 30.08 in 10.0 mi South 6.9 mph - N/A   Scattered Clouds
6:35 PM 85.1 °F 87.7 °F 66.7 °F 54% 30.08 in 10.0 mi South 6.9 mph - N/A   Clear
6:55 PM 83.7 °F 86.0 °F 66.6 °F 56% 30.08 in 10.0 mi South 3.5 mph - N/A   Clear
7:15 PM 82.6 °F 85.1 °F 66.9 °F 59% 30.09 in 10.0 mi South 5.8 mph - N/A   Clear
7:35 PM 82.0 °F 84.5 °F 66.9 °F 60% 30.09 in 10.0 mi South 4.6 mph - N/A   Clear
7:55 PM 81.7 °F 84.2 °F 66.9 °F 61% 30.09 in 10.0 mi South 4.6 mph - N/A   Clear
8:15 PM 81.3 °F 83.8 °F 67.1 °F 62% 30.09 in 10.0 mi South 6.9 mph - N/A   Clear
8:35 PM 81.1 °F 83.7 °F 67.5 °F 63% 30.10 in 10.0 mi South 6.9 mph - N/A   Clear
8:55 PM 80.8 °F 83.3 °F 67.6 °F 64% 30.10 in 10.0 mi South 4.6 mph - N/A   Clear
9:15 PM 79.3 °F - 68.0 °F 68% 30.10 in 10.0 mi SE 4.6 mph - N/A   Clear
9:35 PM 77.0 °F - 68.0 °F 74% 30.10 in 10.0 mi SSE 3.5 mph - N/A   Clear
9:55 PM 75.0 °F - 68.0 °F 79% 30.10 in 10.0 mi SSE 4.6 mph - N/A   Clear
10:15 PM 76.1 °F - 68.0 °F 76% 30.10 in 10.0 mi SSE 4.6 mph - N/A   Clear
10:35 PM 74.8 °F - 68.0 °F 79% 30.10 in 10.0 mi SSE 4.6 mph - N/A   Clear
10:55 PM 75.4 °F - 68.0 °F 78% 30.10 in 10.0 mi SSE 4.6 mph - N/A   Clear
11:15 PM 73.8 °F - 68.2 °F 83% 30.10 in 10.0 mi SE 4.6 mph - N/A   Clear
11:35 PM 72.9 °F - 68.2 °F 85% 30.10 in 10.0 mi SE 5.8 mph - N/A   Clear
11:55 PM 72.7 °F - 68.4 °F 86% 30.10 in 10.0 mi SE 4.6 mph - N/A   Clear